This is the latest recevied weather packets stored in our database for station/object K1JO. If no packets are shown the sender has not sent any weather packets the latest 10 day(s).
| Time | Temp. | Humidity | Pressure | Rain* | Wind** | Luminosity | Snow |
|---|---|---|---|---|---|---|---|
| 1777894639 | 7.22° C | 75% | 1003.7 hPa | 0 mm | - | 96 W/m² | - |
| 1777894335 | 6.67° C | 74% | 1003.4 hPa | 0 mm | - | 88 W/m² | - |
| 1777894033 | 6.67° C | 78% | 1003.5 hPa | 0 mm | - | 79 W/m² | - |
| 1777893729 | 5.56° C | 85% | 1003.6 hPa | 0 mm | - | 74 W/m² | - |
| 1777893425 | 5° C | 83% | 1003.6 hPa | 0 mm | - | 70 W/m² | - |
| 1777893121 | 4.44° C | 89% | 1003.8 hPa | 0 mm | - | 66 W/m² | - |
| 1777892818 | 3.89° C | 91% | 1003.6 hPa | 0 mm | - | 62 W/m² | - |
| 1777892515 | 2.78° C | 98% | 1003.6 hPa | 0 mm | - | 60 W/m² | - |
| 1777892210 | 2.78° C | 99% | 1003.5 hPa | 0 mm | - | 60 W/m² | - |
| 1777891907 | 2.78° C | 99% | 1003.5 hPa | 0 mm | - | 61 W/m² | - |
| 1777891605 | 2.22° C | 99% | 1003.4 hPa | 0 mm | - | 65 W/m² | - |
| 1777891301 | 1.67° C | 99% | 1003.4 hPa | 0 mm | - | 74 W/m² | - |
| 1777891001 | 1.67° C | 99% | 1003.4 hPa | 0 mm | - | 83 W/m² | - |
| 1777890696 | 1.67° C | 99% | 1003.4 hPa | 0 mm | - | 51 W/m² | - |
| 1777890392 | 1.11° C | 99% | 1003.4 hPa | 0 mm | - | 31 W/m² | - |
| 1777890088 | 0.56° C | 99% | 1003.2 hPa | 0 mm | - | 37 W/m² | - |
| 1777889786 | -0.56° C | 99% | 1003 hPa | 0 mm | - | 52 W/m² | - |
| 1777889483 | -1.11° C | 99% | 1003.1 hPa | 0 mm | - | 38 W/m² | - |
| 1777889181 | -1.11° C | 99% | 1003.1 hPa | 0 mm | - | 25 W/m² | - |
| 1777888879 | -1.11° C | 99% | 1003.2 hPa | 0 mm | - | 22 W/m² | - |
| 1777888575 | -1.67° C | 99% | 1003.2 hPa | 0 mm | - | 19 W/m² | - |
| 1777888270 | -1.67° C | 99% | 1003 hPa | 0 mm | - | 16 W/m² | - |
| 1777887968 | -1.67° C | 99% | 1003.1 hPa | 0 mm | - | 14 W/m² | - |
| 1777887665 | -1.67° C | 99% | 1003 hPa | 0 mm | - | 11 W/m² | - |
| 1777887360 | -2.22° C | 99% | 1003 hPa | 0 mm | - | 9 W/m² | - |
* Rain latest hour (hover to see other rain measurements)
** Current wind speed in m/s (hover to see current wind gust speed)